| time (UTC) | temp F | wind direction | speed knots | gust knots | rain 1hr in | rain 24hr in | rain mn in | humidity % | barometer mb |
| 20260510214303 | 61 | 236 | 2.6 | 4.3 | 0.00 | 0.13 | 0.13 | 76 | 1015.2 |
| 20260510213804 | 61 | 210 | 1.7 | 4.3 | 0.00 | 0.13 | 0.13 | 76 | 1015.2 |
| 20260510213303 | 61 | 232 | 1.7 | 5.2 | 0.00 | 0.13 | 0.13 | 76 | 1015.3 |
| 20260510212804 | 61 | 217 | 1.7 | 4.3 | 0.00 | 0.13 | 0.13 | 76 | 1015.2 |
| 20260510212306 | 62 | 206 | 2.6 | 6.1 | 0.00 | 0.13 | 0.13 | 76 | 1015.2 |
| 20260510211804 | 62 | 253 | 2.6 | 5.2 | 0.00 | 0.13 | 0.13 | 76 | 1015.1 |
| 20260510211304 | 62 | 212 | 3.5 | 5.2 | 0.00 | 0.13 | 0.13 | 75 | 1015.1 |
| 20260510210304 | 62 | 222 | 2.6 | 7.8 | 0.00 | 0.13 | 0.13 | 75 | 1015.0 |
| 20260510205803 | 62 | 231 | 2.6 | 6.1 | 0.00 | 0.13 | 0.13 | 75 | 1015.0 |
| 20260510205306 | 62 | 208 | 4.3 | 7.0 | 0.00 | 0.13 | 0.13 | 74 | 1015.0 |
| 20260510204804 | 62 | 222 | 3.5 | 7.0 | 0.00 | 0.13 | 0.13 | 74 | 1014.8 |
| 20260510204303 | 62 | 207 | 5.2 | 7.0 | 0.00 | 0.13 | 0.13 | 74 | 1014.8 |
| 20260510203804 | 62 | 196 | 4.3 | 7.0 | 0.00 | 0.13 | 0.13 | 73 | 1014.7 |
| 20260510202306 | 63 | 210 | 5.2 | 7.8 | 0.00 | 0.13 | 0.13 | 72 | 1014.6 |
| 20260510201804 | 63 | 228 | 4.3 | 10.4 | 0.00 | 0.13 | 0.13 | 72 | 1014.6 |
| 20260510201304 | 63 | 232 | 6.1 | 8.7 | 0.00 | 0.13 | 0.13 | 71 | 1014.5 |
| 20260510200804 | 63 | 215 | 6.1 | 8.7 | 0.00 | 0.13 | 0.13 | 71 | 1014.5 |
| 20260510200304 | 63 | 231 | 7.0 | 10.4 | 0.00 | 0.13 | 0.13 | 71 | 1014.4 |
| 20260510195306 | 63 | 237 | 5.2 | 7.8 | 0.00 | 0.13 | 0.13 | 70 | 1014.3 |
| 20260510194804 | 64 | 243 | 4.3 | 8.7 | 0.00 | 0.13 | 0.13 | 70 | 1014.2 |
| 20260510193804 | 64 | 241 | 4.3 | 7.8 | 0.00 | 0.13 | 0.13 | 69 | 1014.2 |
| 20260510192804 | 64 | 217 | 2.6 | 10.4 | 0.00 | 0.13 | 0.13 | 68 | 1014.0 |
| 20260510192306 | 64 | 221 | 5.2 | 8.7 | 0.00 | 0.13 | 0.13 | 68 | 1014.0 |
| 20260510191304 | 65 | 224 | 4.3 | 8.7 | 0.00 | 0.13 | 0.13 | 66 | 1014.0 |
| 20260510190804 | 65 | 231 | 7.8 | 13.0 | 0.00 | 0.13 | 0.13 | 66 | 1014.0 |
| 20260510190304 | 65 | 234 | 4.3 | 8.7 | 0.00 | 0.13 | 0.13 | 65 | 1014.0 |
| 20260510185804 | 65 | 211 | 7.8 | 13.9 | 0.00 | 0.13 | 0.13 | 64 | 1014.0 |
| 20260510185306 | 65 | 218 | 5.2 | 13.0 | 0.00 | 0.13 | 0.13 | 64 | 1013.9 |
| 20260510184804 | 66 | 218 | 6.1 | 11.3 | 0.00 | 0.13 | 0.13 | 64 | 1013.8 |
| 20260510184304 | 66 | 209 | 5.2 | 8.7 | 0.00 | 0.13 | 0.13 | 63 | 1013.8 |
| 20260510183803 | 66 | 222 | 7.8 | 15.6 | 0.00 | 0.13 | 0.13 | 61 | 1013.8 |
| 20260510183304 | 66 | 231 | 7.0 | 10.4 | 0.00 | 0.13 | 0.13 | 61 | 1013.8 |
| 20260510182306 | 67 | 212 | 7.8 | 18.2 | 0.00 | 0.13 | 0.13 | 60 | 1013.7 |
| 20260510181804 | 67 | 237 | 7.8 | 13.0 | 0.00 | 0.13 | 0.13 | 60 | 1013.7 |
| 20260510181304 | 67 | 231 | 9.6 | 17.4 | 0.00 | 0.13 | 0.13 | 59 | 1013.6 |
| 20260510180804 | 67 | 228 | 6.1 | 11.3 | 0.00 | 0.13 | 0.13 | 59 | 1013.5 |
| 20260510175803 | 68 | 243 | 7.0 | 13.9 | 0.00 | 0.13 | 0.13 | 60 | 1013.4 |
| 20260510175306 | 68 | 235 | 4.3 | 11.3 | 0.00 | 0.13 | 0.13 | 59 | 1013.4 |
| 20260510174804 | 67 | 229 | 7.8 | 11.3 | 0.00 | 0.13 | 0.13 | 58 | 1013.4 |
| 20260510174304 | 67 | 239 | 8.7 | 14.8 | 0.00 | 0.13 | 0.13 | 58 | 1013.3 |
| 20260510173803 | 68 | 228 | 8.7 | 17.4 | 0.00 | 0.13 | 0.13 | 58 | 1013.3 |
| 20260510173303 | 68 | 228 | 5.2 | 11.3 | 0.00 | 0.13 | 0.13 | 62 | 1013.3 |
| 20260510172803 | 68 | 224 | 6.1 | 12.2 | 0.00 | 0.13 | 0.13 | 61 | 1013.4 |
| 20260510172306 | 68 | 234 | 7.8 | 13.0 | 0.00 | 0.13 | 0.13 | 60 | 1013.3 |
| 20260510171804 | 68 | 237 | 5.2 | 10.4 | 0.00 | 0.13 | 0.13 | 60 | 1013.4 |
| 20260510171303 | 68 | 226 | 7.0 | 13.0 | 0.00 | 0.13 | 0.13 | 59 | 1013.4 |
| 20260510170804 | 68 | 236 | 8.7 | 17.4 | 0.00 | 0.13 | 0.13 | 58 | 1013.2 |
| 20260510170304 | 68 | 224 | 7.0 | 13.9 | 0.00 | 0.13 | 0.13 | 58 | 1013.2 |
| 20260510165803 | 68 | 233 | 6.1 | 13.9 | 0.00 | 0.13 | 0.13 | 60 | 1013.2 |
| 20260510165306 | 68 | 253 | 7.0 | 12.2 | 0.00 | 0.13 | 0.13 | 60 | 1013.3 |
| 20260510164804 | 68 | 225 | 6.1 | 15.6 | 0.00 | 0.13 | 0.13 | 61 | 1013.4 |
| 20260510164304 | 68 | 223 | 6.1 | 15.6 | 0.00 | 0.13 | 0.13 | 62 | 1013.4 |
| 20260510163804 | 68 | 236 | 8.7 | 14.8 | 0.00 | 0.13 | 0.13 | 63 | 1013.4 |
| 20260510163303 | 67 | 248 | 7.0 | 13.9 | 0.00 | 0.13 | 0.13 | 64 | 1013.4 |
| 20260510162803 | 68 | 240 | 8.7 | 15.6 | 0.00 | 0.13 | 0.13 | 65 | 1013.4 |
| 20260510162306 | 67 | 258 | 7.8 | 13.9 | 0.00 | 0.13 | 0.13 | 65 | 1013.4 |
| 20260510161804 | 68 | 245 | 8.7 | 17.4 | 0.00 | 0.13 | 0.13 | 65 | 1013.4 |
| 20260510161304 | 67 | 240 | 8.7 | 14.8 | 0.00 | 0.13 | 0.13 | 67 | 1013.4 |
| 20260510160303 | 66 | 254 | 8.7 | 13.9 | 0.00 | 0.13 | 0.13 | 69 | 1013.3 |
| 20260510155803 | 66 | 258 | 7.0 | 10.4 | 0.00 | 0.13 | 0.13 | 68 | 1013.3 |
| 20260510155306 | 65 | 268 | 5.2 | 12.2 | 0.00 | 0.13 | 0.13 | 68 | 1013.4 |
| 20260510154803 | 65 | 269 | 7.8 | 12.2 | 0.00 | 0.13 | 0.13 | 66 | 1013.5 |
| 20260510154303 | 65 | 264 | 9.6 | 17.4 | 0.00 | 0.13 | 0.13 | 64 | 1013.5 |
| 20260510153804 | 66 | 274 | 8.7 | 15.6 | 0.00 | 0.13 | 0.13 | 62 | 1013.4 |
| 20260510153304 | 67 | 277 | 8.7 | 17.4 | 0.00 | 0.13 | 0.13 | 61 | 1013.5 |
| 20260510152804 | 69 | 251 | 11.3 | 20.9 | 0.00 | 0.13 | 0.13 | 61 | 1013.2 |
| 20260510151803 | 68 | 231 | 8.7 | 14.8 | 0.00 | 0.13 | 0.13 | 61 | 1013.2 |
| 20260510151304 | 68 | 219 | 10.4 | 19.1 | 0.00 | 0.13 | 0.13 | 61 | 1013.1 |
| 20260510150804 | 68 | 204 | 8.7 | 15.6 | 0.00 | 0.13 | 0.13 | 63 | 1013.4 |
| 20260510145804 | 68 | 222 | 7.8 | 17.4 | 0.00 | 0.13 | 0.13 | 63 | 1013.3 |
| 20260510144304 | 69 | 217 | 9.6 | 15.6 | 0.00 | 0.13 | 0.13 | 61 | 1013.4 |
| 20260510143804 | 69 | 257 | 7.8 | 14.8 | 0.00 | 0.13 | 0.13 | 63 | 1013.4 |
| 20260510143304 | 68 | 239 | 8.7 | 19.1 | 0.00 | 0.13 | 0.13 | 63 | 1013.6 |
| 20260510142804 | 69 | 221 | 8.7 | 14.8 | 0.00 | 0.13 | 0.13 | 62 | 1013.5 |
| 20260510142306 | 68 | 229 | 10.4 | 19.1 | 0.00 | 0.13 | 0.13 | 62 | 1013.5 |
| 20260510141304 | 68 | 203 | 11.3 | 17.4 | 0.00 | 0.13 | 0.13 | 65 | 1013.4 |
| 20260510140804 | 67 | 226 | 8.7 | 17.4 | 0.00 | 0.13 | 0.13 | 68 | 1013.5 |
| 20260510140303 | 67 | 229 | 8.7 | 15.6 | 0.00 | 0.13 | 0.13 | 68 | 1013.4 |
| 20260510135804 | 66 | 251 | 7.8 | 14.8 | 0.00 | 0.13 | 0.13 | 69 | 1013.5 |
| 20260510134804 | 65 | 226 | 10.4 | 15.6 | 0.00 | 0.13 | 0.13 | 72 | 1013.5 |
| 20260510134304 | 65 | 215 | 8.7 | 13.9 | 0.00 | 0.13 | 0.13 | 74 | 1013.7 |
| 20260510133804 | 64 | 224 | 7.8 | 12.2 | 0.00 | 0.13 | 0.13 | 76 | 1013.7 |
| 20260510132804 | 63 | 222 | 6.1 | 11.3 | 0.02 | 0.13 | 0.13 | 81 | 1013.8 |
| 20260510132306 | 62 | 247 | 6.1 | 13.9 | 0.02 | 0.13 | 0.13 | 83 | 1013.8 |
| 20260510131804 | 61 | 242 | 5.2 | 10.4 | 0.02 | 0.13 | 0.13 | 84 | 1013.8 |
| 20260510131304 | 61 | 266 | 7.0 | 12.2 | 0.02 | 0.13 | 0.13 | 85 | 1013.8 |
| 20260510130803 | 61 | 252 | 8.7 | 13.9 | 0.02 | 0.13 | 0.13 | 84 | 1014.0 |
| 20260510130304 | 62 | 260 | 8.7 | 18.2 | 0.02 | 0.13 | 0.13 | 82 | 1014.2 |
| 20260510125804 | 63 | 258 | 8.7 | 17.4 | 0.02 | 0.13 | 0.13 | 81 | 1014.1 |
| 20260510125306 | 63 | 258 | 7.8 | 17.4 | 0.02 | 0.13 | 0.13 | 80 | 1013.9 |
| 20260510124304 | 62 | 264 | 9.6 | 17.4 | 0.02 | 0.13 | 0.13 | 84 | 1013.9 |
| 20260510123304 | 62 | 261 | 8.7 | 20.0 | 0.02 | 0.13 | 0.13 | 82 | 1013.9 |
| 20260510122804 | 65 | 234 | 10.4 | 20.9 | 0.01 | 0.11 | 0.11 | 76 | 1013.3 |
| 20260510122306 | 66 | 245 | 11.3 | 22.6 | 0.00 | 0.10 | 0.10 | 71 | 1013.3 |
| 20260510121804 | 67 | 232 | 9.6 | 17.4 | 0.00 | 0.10 | 0.10 | 68 | 1013.3 |
| 20260510121304 | 67 | 237 | 10.4 | 19.1 | 0.00 | 0.11 | 0.10 | 66 | 1013.3 |
| 20260510120804 | 68 | 205 | 11.3 | 17.4 | 0.00 | 0.13 | 0.10 | 66 | 1013.3 |
| 20260510115804 | 69 | 235 | 7.8 | 17.4 | 0.00 | 0.39 | 0.10 | 66 | 1013.2 |
| 20260510115306 | 68 | 201 | 7.8 | 13.9 | 0.00 | 0.39 | 0.10 | 66 | 1013.2 |
| 20260510114804 | 68 | 229 | 8.7 | 17.4 | 0.00 | 0.39 | 0.10 | 67 | 1013.2 |
| 20260510113803 | 68 | 203 | 10.4 | 20.0 | 0.00 | 0.39 | 0.10 | 65 | 1013.3 |
| 20260510113304 | 69 | 207 | 12.2 | 17.4 | 0.00 | 0.39 | 0.10 | 63 | 1013.3 |
| 20260510112306 | 68 | 223 | 8.7 | 17.4 | 0.00 | 0.51 | 0.10 | 65 | 1013.3 |
| 20260510111803 | 68 | 235 | 12.2 | 18.2 | 0.00 | 0.53 | 0.10 | 64 | 1013.4 |
| 20260510111304 | 68 | 252 | 9.6 | 17.4 | 0.00 | 0.53 | 0.10 | 67 | 1013.4 |
| 20260510110804 | 68 | 248 | 11.3 | 17.4 | 0.00 | 0.53 | 0.10 | 67 | 1013.4 |
| 20260510110304 | 68 | 228 | 9.6 | 21.7 | 0.00 | 0.53 | 0.10 | 66 | 1013.3 |
| 20260510105804 | 68 | 208 | 8.7 | 19.1 | 0.00 | 0.53 | 0.10 | 68 | 1013.3 |
| 20260510105306 | 67 | 206 | 9.6 | 19.1 | 0.00 | 0.53 | 0.10 | 70 | 1013.3 |
| 20260510104804 | 67 | 244 | 9.6 | 15.6 | 0.00 | 0.53 | 0.10 | 71 | 1013.5 |
| 20260510104304 | 67 | 245 | 10.4 | 18.2 | 0.00 | 0.54 | 0.10 | 72 | 1013.5 |
| 20260510103803 | 66 | 238 | 7.8 | 12.2 | 0.01 | 0.54 | 0.10 | 76 | 1013.5 |
| 20260510103304 | 66 | 230 | 7.8 | 17.4 | 0.05 | 0.54 | 0.10 | 76 | 1013.5 |
| 20260510102804 | 66 | 226 | 8.7 | 17.4 | 0.05 | 0.54 | 0.10 | 77 | 1013.6 |
| 20260510102306 | 65 | 228 | 7.8 | 17.4 | 0.05 | 0.54 | 0.10 | 78 | 1013.6 |
| 20260510101803 | 65 | 213 | 8.7 | 15.6 | 0.05 | 0.54 | 0.10 | 79 | 1013.6 |
| 20260510100804 | 64 | 237 | 6.1 | 11.3 | 0.05 | 0.54 | 0.10 | 82 | 1013.6 |
| 20260510100304 | 63 | 222 | 7.0 | 10.4 | 0.05 | 0.54 | 0.10 | 83 | 1013.7 |
| 20260510095804 | 62 | 215 | 8.7 | 13.0 | 0.05 | 0.54 | 0.10 | 83 | 1013.5 |
| 20260510095305 | 62 | 212 | 8.7 | 13.9 | 0.05 | 0.54 | 0.10 | 84 | 1013.5 |
| 20260510094804 | 61 | 199 | 7.8 | 14.8 | 0.05 | 0.54 | 0.10 | 84 | 1013.5 |
| 20260510094303 | 61 | 220 | 10.4 | 14.8 | 0.05 | 0.54 | 0.10 | 84 | 1013.6 |
| 20260510093303 | 64 | 264 | 6.1 | 13.0 | 0.00 | 0.49 | 0.06 | 83 | 1013.5 |
| 20260510091803 | 64 | 202 | 7.0 | 14.8 | 0.02 | 0.49 | 0.06 | 86 | 1013.1 |
| 20260510091303 | 64 | 195 | 7.0 | 18.2 | 0.03 | 0.50 | 0.06 | 86 | 1013.1 |
| 20260510090803 | 63 | 212 | 5.2 | 13.9 | 0.03 | 0.51 | 0.06 | 85 | 1013.1 |
| 20260510085804 | 63 | 208 | 7.0 | 12.2 | 0.03 | 0.51 | 0.06 | 86 | 1013.1 |
| 20260510085306 | 62 | 188 | 11.3 | 15.6 | 0.03 | 0.51 | 0.06 | 87 | 1013.1 |
| 20260510084804 | 62 | 194 | 4.3 | 13.0 | 0.03 | 0.51 | 0.06 | 88 | 1013.1 |
| 20260510084303 | 61 | 205 | 8.7 | 13.0 | 0.03 | 0.51 | 0.06 | 88 | 1013.1 |
| 20260510083804 | 61 | 191 | 5.2 | 10.4 | 0.03 | 0.51 | 0.06 | 90 | 1013.1 |
| 20260510083304 | 61 | 243 | 4.3 | 7.0 | 0.03 | 0.51 | 0.06 | 90 | 1013.1 |
| 20260510081304 | 61 | 241 | 4.3 | 10.4 | 0.00 | 0.48 | 0.02 | 90 | 1013.1 |
| 20260510080804 | 61 | 207 | 4.3 | 12.2 | 0.00 | 0.48 | 0.02 | 90 | 1013.0 |
| 20260510080304 | 61 | 185 | 6.1 | 10.4 | 0.00 | 0.48 | 0.02 | 90 | 1013.0 |
| 20260510075803 | 61 | 189 | 4.3 | 10.4 | 0.00 | 0.48 | 0.02 | 91 | 1013.0 |
| 20260510075306 | 61 | 170 | 6.1 | 8.7 | 0.00 | 0.48 | 0.02 | 91 | 1012.8 |
| 20260510074304 | 61 | 177 | 5.2 | 10.4 | 0.00 | 0.48 | 0.02 | 91 | 1012.8 |
| 20260510073804 | 61 | 183 | 4.3 | 10.4 | 0.00 | 0.48 | 0.02 | 91 | 1012.8 |
| 20260510072804 | 61 | 173 | 4.3 | 7.8 | 0.00 | 0.48 | 0.02 | 91 | 1012.8 |
| 20260510072305 | 60 | 185 | 5.2 | 7.0 | 0.00 | 0.48 | 0.02 | 92 | 1012.8 |
| 20260510071804 | 60 | 192 | 6.1 | 7.8 | 0.01 | 0.48 | 0.02 | 92 | 1012.8 |
| 20260510071303 | 60 | 158 | 5.2 | 7.0 | 0.01 | 0.48 | 0.02 | 92 | 1012.7 |
| 20260510070804 | 60 | 163 | 4.3 | 7.8 | 0.01 | 0.48 | 0.02 | 92 | 1012.8 |
| 20260510070304 | 60 | 184 | 5.2 | 7.0 | 0.01 | 0.48 | 0.02 | 92 | 1012.7 |
| 20260510065804 | 60 | 172 | 2.6 | 7.0 | 0.01 | 0.48 | 0.02 | 92 | 1012.7 |
| 20260510065306 | 60 | 182 | 3.5 | 6.1 | 0.01 | 0.48 | 0.02 | 92 | 1012.7 |
| 20260510064804 | 60 | 188 | 3.5 | 6.1 | 0.02 | 0.48 | 0.02 | 92 | 1012.7 |
| 20260510064304 | 60 | 148 | 2.6 | 5.2 | 0.02 | 0.48 | 0.02 | 92 | 1012.6 |
| 20260510063804 | 60 | 183 | 1.7 | 6.1 | 0.02 | 0.48 | 0.02 | 92 | 1012.6 |
| 20260510063304 | 60 | 192 | 0.9 | 2.6 | 0.02 | 0.48 | 0.02 | 92 | 1012.5 |
| 20260510062804 | 60 | 210 | 1.7 | 2.6 | 0.02 | 0.48 | 0.02 | 91 | 1012.7 |
| 20260510062306 | 60 | 171 | 0.9 | 2.6 | 0.02 | 0.48 | 0.02 | 91 | 1012.7 |
| 20260510061804 | 60 | 198 | 1.7 | 2.6 | 0.02 | 0.47 | 0.02 | 91 | 1012.7 |
| 20260510061304 | 60 | 166 | 0.9 | 2.6 | 0.02 | 0.47 | 0.02 | 91 | 1012.7 |
| 20260510060303 | 60 | 232 | 2.6 | 5.2 | 0.02 | 0.47 | 0.02 | 91 | 1012.5 |
| 20260510055306 | 59 | 184 | 2.6 | 6.1 | 0.02 | 0.47 | 0.02 | 91 | 1012.5 |
| 20260510054804 | 59 | 189 | 4.3 | 6.1 | 0.00 | 0.46 | 0.00 | 90 | 1012.4 |
| 20260510053303 | 59 | 182 | 3.5 | 6.1 | 0.00 | 0.46 | 0.00 | 90 | 1012.3 |
| 20260510052804 | 59 | 191 | 2.6 | 6.1 | 0.00 | 0.46 | 0.00 | 90 | 1012.3 |
| 20260510052306 | 59 | 188 | 4.3 | 7.0 | 0.00 | 0.46 | 0.00 | 90 | 1012.3 |
| 20260510051804 | 59 | 172 | 3.5 | 6.1 | 0.00 | 0.46 | 0.00 | 90 | 1012.4 |
| 20260510051304 | 59 | 197 | 2.6 | 6.1 | 0.00 | 0.46 | 0.00 | 89 | 1012.4 |
| 20260510050804 | 59 | 177 | 3.5 | 6.1 | 0.00 | 0.46 | 0.00 | 89 | 1012.2 |
| 20260510050304 | 59 | 168 | 4.3 | 7.0 | 0.00 | 0.46 | 0.00 | 89 | 1012.2 |
| 20260510045804 | 59 | 158 | 1.7 | 7.0 | 0.00 | 0.46 | 0.00 | 89 | 1012.2 |
| 20260510045306 | 59 | 179 | 3.5 | 6.1 | 0.00 | 0.46 | 0.00 | 89 | 1012.1 |
| 20260510044803 | 59 | 192 | 2.6 | 7.0 | 0.00 | 0.46 | 0.00 | 89 | 1012.1 |
| 20260510044304 | 59 | 200 | 5.2 | 7.0 | 0.00 | 0.46 | 0.00 | 89 | 1012.1 |
| 20260510043804 | 59 | 175 | 3.5 | 7.0 | 0.00 | 0.46 | 0.00 | 88 | 1012.1 |
| 20260510043304 | 59 | 181 | 5.2 | 6.1 | 0.00 | 0.46 | 0.00 | 88 | 1012.1 |
| 20260510042306 | 60 | 164 | 3.5 | 7.8 | 0.00 | 0.46 | 0.00 | 88 | 1012.1 |
| 20260510041804 | 60 | 192 | 4.3 | 7.0 | 0.00 | 0.46 | 0.00 | 89 | 1012.1 |
| 20260510040803 | 60 | 190 | 4.3 | 8.7 | 0.00 | 0.46 | 0.00 | 89 | 1012.1 |
| 20260510040304 | 60 | 187 | 4.3 | 7.0 | 0.00 | 0.46 | 0.00 | 89 | 1012.1 |
| 20260510035803 | 60 | 185 | 3.5 | 7.0 | 0.00 | 0.46 | 0.00 | 89 | 1012.1 |
| 20260510035306 | 60 | 186 | 4.3 | 7.0 | 0.00 | 0.46 | 0.00 | 89 | 1012.0 |
| 20260510034804 | 60 | 179 | 3.5 | 6.1 | 0.00 | 0.46 | 0.00 | 89 | 1012.0 |
| 20260510034304 | 60 | 181 | 4.3 | 7.0 | 0.00 | 0.46 | 0.00 | 89 | 1012.1 |
| 20260510033804 | 60 | 182 | 4.3 | 7.0 | 0.00 | 0.46 | 0.00 | 89 | 1012.1 |
| 20260510033303 | 60 | 189 | 3.5 | 7.0 | 0.00 | 0.46 | 0.00 | 90 | 1012.1 |
| 20260510032804 | 60 | 192 | 4.3 | 7.0 | 0.00 | 0.46 | 0.00 | 90 | 1012.0 |
| 20260510032306 | 60 | 179 | 4.3 | 10.4 | 0.00 | 0.46 | 0.00 | 90 | 1012.0 |
| 20260510031804 | 60 | 183 | 2.6 | 8.7 | 0.00 | 0.46 | 0.00 | 90 | 1012.0 |
| 20260510031304 | 60 | 200 | 1.7 | 4.3 | 0.00 | 0.46 | 0.00 | 90 | 1012.0 |
| 20260510030803 | 60 | 214 | 1.7 | 4.3 | 0.00 | 0.46 | 0.00 | 90 | 1012.1 |
| 20260510030304 | 60 | 242 | 2.6 | 6.1 | 0.00 | 0.46 | 0.00 | 90 | 1011.9 |
| 20260510025803 | 60 | 199 | 5.2 | 8.7 | 0.00 | 0.46 | 0.00 | 89 | 1011.9 |
| 20260510025306 | 60 | 190 | 2.6 | 7.0 | 0.00 | 0.46 | 0.00 | 89 | 1012.0 |
| 20260510024804 | 60 | 180 | 2.6 | 5.2 | 0.00 | 0.46 | 0.00 | 89 | 1011.9 |
| 20260510023303 | 60 | 171 | 4.3 | 7.0 | 0.00 | 0.46 | 0.00 | 89 | 1012.1 |
| 20260510022804 | 60 | 183 | 2.6 | 6.1 | 0.00 | 0.46 | 0.00 | 89 | 1012.1 |
| 20260510022306 | 60 | 194 | 2.6 | 6.1 | 0.00 | 0.46 | 0.00 | 89 | 1012.0 |
| 20260510021804 | 60 | 185 | 3.5 | 6.1 | 0.00 | 0.46 | 0.00 | 90 | 1012.1 |
| 20260510021304 | 60 | 177 | 2.6 | 5.2 | 0.00 | 0.46 | 0.00 | 90 | 1012.1 |
| 20260510020305 | 60 | 162 | 1.7 | 5.2 | 0.00 | 0.46 | 0.00 | 90 | 1012.4 |
| 20260510015804 | 61 | 190 | 2.6 | 7.0 | 0.00 | 0.46 | 0.00 | 90 | 1012.4 |
| 20260510015306 | 60 | 169 | 3.5 | 7.0 | 0.00 | 0.46 | 0.00 | 90 | 1012.4 |
| 20260510014304 | 61 | 175 | 2.6 | 6.1 | 0.00 | 0.46 | 0.00 | 90 | 1012.5 |
| 20260510013804 | 61 | 180 | 3.5 | 5.2 | 0.00 | 0.46 | 0.00 | 90 | 1012.5 |
| 20260510013304 | 61 | 185 | 1.7 | 4.3 | 0.00 | 0.46 | 0.00 | 90 | 1012.6 |
| 20260510012804 | 61 | 178 | 2.6 | 6.1 | 0.00 | 0.46 | 0.00 | 90 | 1012.6 |
| 20260510012306 | 61 | 180 | 1.7 | 5.2 | 0.00 | 0.46 | 0.00 | 90 | 1012.5 |
| 20260510011804 | 61 | 172 | 3.5 | 6.1 | 0.00 | 0.46 | 0.00 | 90 | 1012.6 |
| 20260510011304 | 61 | 166 | 2.6 | 4.3 | 0.00 | 0.46 | 0.00 | 90 | 1012.6 |
| 20260510010804 | 61 | 160 | 3.5 | 5.2 | 0.00 | 0.46 | 0.00 | 90 | 1012.6 |
| 20260510010303 | 61 | 185 | 2.6 | 5.2 | 0.00 | 0.46 | 0.00 | 90 | 1012.9 |
| 20260510005804 | 60 | 189 | 4.3 | 6.1 | 0.00 | 0.46 | 0.00 | 90 | 1012.9 |
| 20260510004304 | 60 | 184 | 4.3 | 6.1 | 0.00 | 0.46 | 0.00 | 89 | 1013.1 |
| 20260510003803 | 60 | 190 | 4.3 | 6.1 | 0.00 | 0.46 | 0.00 | 89 | 1013.1 |
| 20260510003304 | 60 | 188 | 2.6 | 6.1 | 0.00 | 0.46 | 0.00 | 89 | 1013.1 |
| 20260510002804 | 60 | 183 | 3.5 | 5.2 | 0.00 | 0.46 | 0.00 | 89 | 1013.1 |
| 20260510002306 | 60 | 175 | 3.5 | 6.1 | 0.00 | 0.46 | 0.00 | 89 | 1013.2 |
| 20260510001804 | 60 | 177 | 2.6 | 5.2 | 0.00 | 0.46 | 0.00 | 88 | 1013.2 |
| 20260509235306 | 60 | 188 | 3.5 | 6.1 | 0.00 | 0.46 | 0.00 | 88 | 1013.3 |
| 20260509233804 | 60 | 173 | 3.5 | 6.1 | 0.00 | 0.46 | 0.00 | 87 | 1013.3 |
| 20260509233304 | 60 | 170 | 2.6 | 7.0 | 0.00 | 0.46 | 0.00 | 87 | 1013.4 |
| 20260509232306 | 60 | 191 | 4.3 | 6.1 | 0.00 | 0.46 | 0.00 | 87 | 1013.4 |
| 20260509231804 | 60 | 166 | 2.6 | 5.2 | 0.00 | 0.46 | 0.00 | 87 | 1013.4 |
| 20260509231303 | 60 | 177 | 4.3 | 6.1 | 0.00 | 0.46 | 0.00 | 87 | 1013.4 |
| 20260509230804 | 60 | 166 | 4.3 | 7.0 | 0.00 | 0.46 | 0.00 | 87 | 1013.4 |
| 20260509230304 | 60 | 176 | 2.6 | 7.0 | 0.00 | 0.46 | 0.00 | 87 | 1013.4 |
| 20260509225804 | 60 | 181 | 4.3 | 6.1 | 0.00 | 0.46 | 0.00 | 87 | 1013.4 |
| 20260509225306 | 60 | 169 | 3.5 | 6.1 | 0.00 | 0.46 | 0.00 | 87 | 1013.4 |
| 20260509224804 | 60 | 185 | 2.6 | 4.3 | 0.00 | 0.46 | 0.00 | 87 | 1013.5 |
| 20260509223804 | 60 | 183 | 4.3 | 7.0 | 0.00 | 0.46 | 0.00 | 87 | 1013.5 |
| 20260509223304 | 61 | 166 | 4.3 | 7.0 | 0.00 | 0.46 | 0.00 | 87 | 1013.5 |
| 20260509222804 | 61 | 184 | 4.3 | 7.0 | 0.00 | 0.46 | 0.00 | 87 | 1013.5 |
| 20260509222306 | 61 | 195 | 3.5 | 6.1 | 0.00 | 0.46 | 0.00 | 86 | 1013.5 |
| 20260509220803 | 61 | 186 | 2.6 | 5.2 | 0.00 | 0.46 | 0.00 | 85 | 1013.5 |
| 20260509220304 | 61 | 176 | 3.5 | 6.1 | 0.00 | 0.46 | 0.00 | 85 | 1013.5 |
| 20260509215804 | 61 | 188 | 3.5 | 6.1 | 0.00 | 0.46 | 0.46 | 85 | 1013.5 |
| 20260509215306 | 62 | 192 | 4.3 | 7.0 | 0.00 | 0.46 | 0.46 | 85 | 1013.5 |